CZ-3B DEB, 52965

Orbit data source: Space-Track

CZ-3B DEB, 52965 is space debris in HEO originally from a launch on Sat, 04 Sep 2010 UTC launched from the Xichang Space Center, China (XSC). Debris objects in space refer to the collection of defunct objects orbiting the Earth. Examples of debris include non-operational satellites, rocket bodies, and fragments generated from explosions, collisions, or faulty payload assembly.

Loading next visibility...
Identifier
52965, 2010-042AJ
Orbit
HEO
Last TLE update
5 months ago
Origin
Manufacturer
CALT
Mission
Spacecraft
Bus & Motor
Unknown
Mass
Unknown
Launch date (UTC)
2010-09-04 (15 years ago)
Launch vehicle
Unknown
Launch site
Xichang Space Center, China (XSC)
Object type
Payload
Rocket body
Debris
Shape & HBR
Unknown
Radar Cross Section
Small (<0.1 m²)

Expand to show TLE details & history

TLE from 5 months ago
0 CZ-3B DEB
1 52965U 10042AJ  25034.26342965 -.00000810  00000-0 -63790-1 0  9992
2 52965  25.0343 354.8954 7418474 274.8715  12.4385  1.82724649 19166
Epoch: 2025-02-03T06:19Z
TLE epoch observation values (Epoch: 2025-02-03T06:19:20.321Z)
Latitude
-0.00014°
Longitude
126.36417°
Altitude
5,573.224 km
Speed
7.252 km/s
True Right ascension
23h 39m 32s
True Declination
0° 00' 01"
Sunlit
Object was in daylight at epoch
Visualization orbit readout
Latitude
4.65918°
Longitude
-99.62966°
Altitude
40,039.541 km
Speed
1.755 km/s
Apparent Right ascension
08h 44m 03s
Apparent Declination
0° 20' 33"
Sunlit
Object is in daylight
Visualization observer readout
Local Sidereal Time
22:05:56
Azimuth
30.384° NE
Elevation
-46.25°
Doppler factor
1
Orbital elements
Apogee altitude
42,856.666 km
Perigee altitude
918.767 km
Semi-major axis
28,265.854 km
Eccentricity
0.74185
Inclination
25.0343°
RAAN
354.8954°
Arg. of periapsis
274.8715°
True anomaly
Unknown
Mean anomaly
12.4385°
Eccentric anomaly
Unknown
Mean motion
0.45672 °/min
Orbital period
788.23 mins
BSTAR
-0.06379
Loading maneuver chart data...
Loading SW <> Apogee altitude chart data...
Loading historical data...
Loading historical data...
Loading historical data...
Loading historical data...
Loading historical data...
Loading historical data...
Loading historical data...

CZ-3B DEB Visibility forecast

Observer location: undefined°, undefined°

Span
Click to sort rows by Start time (UTC) header in descending order
Start Az.
Max El. time (UTC)
Max El. Az.
Max El.
End time (UTC)
End Az.
636 mins2025-07-01 15:28:29.637Z251.561° W2025-07-01 16:14:29.637Z175.337° S42.894°2025-07-02 02:04:29.637Z243.576° WSW
|